Location: *
(46.4000°N, 12.6667°E)
Time: 01:03:13
(UTC+00:00)

USA 234 - Pass Details

Date: 09 April 2020
Orbit: 1102 x 1106 km, 123.0° (Epoch: 14 May)

Event Time Altitude Azimuth Distance (km) Brightness Sun altitude
Rises 19:50:38 0° 54° (NE) 3,926 6.0 -19.8°
Reaches altitude 10° 19:53:15 10° 60° (ENE) 2,965 5.3 -20.1°
Maximum altitude 19:59:31 46° 133° (SE) 1,438 3.4 -21.0°
Drops below altitude 10° 20:05:45 10° 206° (SSW) 2,954 5.4 -21.8°
Sets 20:08:20 0° 212° (SSW) 3,910 6.1 -22.2°
